Regional Weather Roundup
Issued by NWS Little Rock, AR

Home | Current Version | Previous Version | Graphics & Text | Print | Product List | Glossary On
Versions: 1 2 3 4 5 6 7 8 9 10 11 12 13 14 15 16 17 18 19 20 21 22 23 24 25 26 27 28 29 30 31
000
ASUS44 KLZK 260105
RWRLZK

WEATHER ROUNDUP FOR ARKANSAS
NATIONAL WEATHER SERVICE LITTLE ROCK AR
800 PM CDT FRI MAY 25 2018

NOTE: "FAIR" INDICATES FEW OR NO CLOUDS BELOW 12,000 FEET WITH NO
SIGNIFICANT WEATHER AND/OR OBSTRUCTIONS TO VISIBILITY.

ARZ001-003-010-029-260200-
NORTHWEST ARKANSAS

CITY           SKY/WX    TMP DP  RH WIND       PRES   REMARKS
FAYETTEVILLE   CLOUDY    77  72  84 CALM      29.86R
FORT SMITH     CLOUDY    83  68  60 W8        29.81S HX  86
HARRISON       CLOUDY    69  65  86 E9        29.87R
BENTONVILLE    PTCLDY    78  69  73 SW6       29.88R
ROGERS         PTCLDY    76  68  76 W3        29.87R
SILOAM SPGS    PTCLDY    78  69  73 NW5       29.87R
SPRINGDALE     CLEAR     75  70  83 S3        29.87R
$$

ARZ004-005-016-260200-
NORTH CENTRAL ARKANSAS

CITY           SKY/WX    TMP DP  RH WIND       PRES   REMARKS
BATESVILLE     PTCLDY    70  69  97 CALM      29.88R
FLIPPIN        LGT RAIN  68  66  93 E3        29.89R
MTN HOME       CLOUDY    68  67  96 E6        29.88F THUNDER
$$

ARZ040-041-260200-
WEST CENTRAL ARKANSAS

CITY           SKY/WX    TMP DP  RH WIND       PRES   REMARKS
MENA           CLOUDY    77  68  73 CALM      29.86S
MOUNT IDA      PTCLDY    79  68  69 CALM      29.83R
$$

ARZ009-017-025-026-028-260200-
NORTHEAST ARKANSAS

CITY           SKY/WX    TMP DP  RH WIND       PRES   REMARKS
CORNING        FAIR      79  73  83 S5        29.86S
JONESBORO      FAIR      76  74  93 S7        29.86S
NEWPORT        FAIR      73  71  93 S6        29.86R
WALNUT RIDGE     N/A     77  73  87 S6        29.87R
BLYTHEVILLE    FAIR      78  68  71 SE8       29.87F
$$

ARZ022-023-033-042-044-260200-
CENTRAL ARKANSAS

CITY           SKY/WX    TMP DP  RH WIND       PRES   REMARKS
LITTLE ROCK    CLOUDY    75  69  81 S5        29.85R
N LITTLE ROCK    N/A     76  69  80 S6        29.80F
JACKSONVILLE   MOCLDY    77  71  81 CALM      29.84S
CONWAY         CLEAR     79  72  78 SE8       29.83R
SEARCY         FAIR      78  73  84 MISG      29.87R
HOT SPRINGS    PTCLDY    79  70  74 E5        29.83F
RUSSELLVILLE   TSTM      73  71  93 VRB6      29.85R FOG
CLINTON        FAIR      77  68  73 NW8G15    29.89R THUNDER
$$

ARZ036-260200-
EAST ARKANSAS

CITY           SKY/WX    TMP DP  RH WIND       PRES   REMARKS
WEST MEMPHIS   FAIR      75  73  93 S6        29.87F
$$

ARZ050-053-066-070-073-260200-
SOUTHWEST ARKANSAS

CITY           SKY/WX    TMP DP  RH WIND       PRES   REMARKS
ARKADELPHIA    FAIR      80  73  79 NE3       29.84R
CAMDEN         FAIR      81  70  69 S5        29.83S
TEXARKANA      CLOUDY    78  71  79 CALM      29.85R
EL DORADO      FAIR      76  70  82 CALM      29.83F
DE QUEEN       CLEAR     76  71  85 CALM      29.82R
$$

ARZ056-057-069-260200-
SOUTHEAST ARKANSAS

CITY           SKY/WX    TMP DP  RH WIND       PRES   REMARKS
PINE BLUFF     FAIR      73  69  87 SE10      29.86S
STUTTGART      FAIR      77  70  79 SE12      29.86S

$$






USA.gov is the U.S. government's official web portal to all federal, state and local government web resources and services.